Regional Weather Roundup
Issued by NWS

Home | Current Version | Previous Version | Graphics & Text | Print | Product List | Glossary On
Versions: 1 2 3 4 5 6 7 8 9 10 11 12 13 14 15 16 17 18 19 20 21 22 23 24 25 26 27 28 29 30 31 32 33 34 35 36 37 38 39 40 41 42 43 44 45 46 47 48 49 50
000
ASUS45 KSLC 070510
RWRUT

UTAH REGIONAL WEATHER ROUNDUP
NATIONAL WEATHER SERVICE SALT LAKE CITY UT
1100 PM MDT MON JUL 06 2015

UTZ001>011-023>025-070600-

NORTHERN UTAH

CITY           SKY/WX    TMP DP  RH WIND       PRES   REMARKS
BRIGHAM CITY   MOCLDY    73  54  52 NW3       30.07S
HILL AFB       MOCLDY    75  54  48 S6        30.10R
LOGAN          MOCLDY    69  59  70 S3        30.09R
OGDEN          CLOUDY    77  55  46 S5        30.07R
PROVO AIRPORT  MOCLDY    70  50  49 S9        30.12S
SALT LAKE CITY PTCLDY    75  54  47 SE10      30.06R
VERNAL         CLOUDY    65  52  62 CALM      30.15S
WENDOVER       MOCLDY    75  46  35 W10       30.09R
HEBER CITY     PTCLDY    61  50  67 E6        30.17R
WEST JORDAN    PTCLDY    70  54  56 S7        30.10R

$$

UTZ012>022-026-027-070600-

SOUTHERN/CENTRAL UTAH

CITY           SKY/WX    TMP DP  RH WIND       PRES   REMARKS
BLANDING       MOCLDY    65  54  66 NE3       30.24R
BRYCE CANYON   MOCLDY    52  49  89 SW6       30.32S
CEDAR CITY     MOCLDY    63  51  65 SE3       30.19R
DELTA          CLOUDY    69  51  51 MISG      30.14R
HANKSVILLE     CLOUDY    72  54  53 CALM      30.11S
MILFORD        MOCLDY    68  49  50 SW12      30.13R
MOAB/CYNLANDS  MOCLDY    71  56  58 NE9       30.09R
PRICE          MOCLDY    64  44  48 N9        30.18R
ST GEORGE      MOCLDY    75  59  57 W5        30.07R
KANAB          PTCLDY    63  59  88 CALM      30.22R

$$

REGIONAL REPORTS     COLORADO/ARIZONA

CITY           SKY/WX    TMP DP  RH WIND       PRES   REMARKS
CRAIG, CO      CLOUDY    64  51  62 N17G26    30.25R
GRAND JUNCTION CLOUDY    70  52  52 N8        30.11S
RIFLE          LGT RAIN  67  54  63 NW6       30.17R
MONTROSE       MOCLDY    71  47  42 N5        30.19R
CORTEZ         CLEAR     64  53  67 E5        30.19R
PAGE, AZ       MOCLDY    72  58  61 CALM      30.10R
GRAND CANYON   PTCLDY    55  48  77 CALM      30.28R
KINGMAN        MOCLDY    73  61  65 NE7       30.06R
FLAGSTAFF      PTCLDY    58  52  80 CALM      30.30S

$$

REGIONAL REPORTS    NEVADA/IDAHO/WYOMING

CITY           SKY/WX    TMP DP  RH WIND       PRES   REMARKS
LAS VEGAS, NV  CLOUDY    82  60  47 S10       29.93S
ELY            MOCLDY    64  43  46 NW12      30.26R
ELKO           CLEAR     68  46  45 NE5       30.13R
POCATELLO, ID  CLEAR     70  51  51 N18       30.12R
BURLEY         PTCLDY    71  54  54 E3        30.06R
EVANSTON, WY   MOCLDY    58  48  69 E12       30.27F
ROCK SPRINGS   MOCLDY    55  52  89 SE9       30.28S
KEMMERER       PTCLDY    55  50  82 E3        30.31S

$$



USA.gov is the U.S. government's official web portal to all federal, state and local government web resources and services.